Regional Weather Roundup
Issued by NWS Grand Forks, ND

Home | Current Version | Previous Version | Text Only | Print | Product List | Glossary Off
Versions: 1 2 3 4 5 6 7 8 9 10 11 12 13 14 15 16 17 18 19 20 21 22 23 24 25 26 27 28 29 30 31 32 33 34 35 36 37 38 39 40 41 42 43 44 45 46 47 48 49 50

526
ASUS43 KFGF 171931
RWRFGF
PRAIRIE TO PINES  WEATHER ROUNDUP
NATIONAL WEATHER SERVICE EASTERN NORTH DAKOTA/GRAND FORKS ND
100 PM CST SAT FEB 17 2018

 **SATELLITE DATA USED TO AUGMENT SKY COVER AT AUTOMATED STATIONS**
 *****  WEATHER ACROSS EASTERN NORTH DAKOTA  *****

CITY           SKY/WX    TMP DP  RH WIND       PRES   REMARKS
GRAND FORKS    FAIR      22   9  57 NW18      29.92R WCI   7
GRAND FRKS AFB SUNNY     21   4  48 NW18G25   29.92R WCI   6
GRAND FRKS NWS   N/A     22   9  57 N22       29.89S WCI   6
DEVILS LAKE    FAIR      16   8  71 W18       29.92F WCI   0
FARGO          FAIR      24  14  65 NW20      29.95S WCI  10
WAHPETON ARPT  FAIR      28   9  43 NW26G36   29.95S WCI  13
$$

 ***** WEATHER ACROSS CENTRAL AND WESTERN NORTH DAKOTA  *****

CITY           SKY/WX    TMP DP  RH WIND       PRES   REMARKS
BISMARCK       FAIR      25  11  55 W13       30.00F WCI  14
MINOT          FAIR      20   7  57 W23G31    29.93S WCI   3
JAMESTOWN      FAIR      23   9  55 NW20      29.95R WCI   8
MINOT AFB      FAIR      19   9  63 NW23G30   29.91F WCI   2
GARRISON         N/A     21  11  65 W21       29.95F WCI   5
WILLISTON      FAIR      17   7  64 W15       30.00S WCI   2
DICKINSON      FAIR      18   8  65 W20       29.95F WCI   2
HETTINGER      FAIR      17   8  67 NW17      29.99F WCI   1
$$

 *****  OTHER AIRPORT OBSERVATIONS IN OUR AREA  *****

CITY           SKY/WX    TMP DP  RH WIND       PRES   REMARKS
WALHALLA       FAIR      19   3  49 W12       29.89S WCI   7
GRAFTON AIRPOR FAIR      21   7  53 NW15G23   29.93S WCI   8
VALLEY CITY AR FLURRIES  19   9  63 NW18      29.97S WCI   4
CANDO          FAIR      19   9  63 W21G28    29.91F WCI   3
CAVALIER APRT    N/A     21   5  49 NW14G25   29.89S WCI   8
GWINNER          N/A     28   9  43 NW17G23   29.97R WCI  16
ROLLA          CLOUDY    16   5  62 W23G29    29.86S WCI  -2
 ***** THE ABOVE OBSERVATIONS ARE NON NWS ARE NOT QUALITY
       CONTROLLED AND MAY MIS-REPORT RAIN FOR SNOW...
$$

  *****  WEATHER ACROSS NORTHERN MINNESOTA  *****

CITY           SKY/WX    TMP DP  RH WIND       PRES   REMARKS
FLAG ISLAND    FLURRIES  16   1  53 W17G29    29.78R WCI   0
WARROAD        FAIR      18   7  62 W17       29.82R WCI   2
ROSEAU         NOT AVBL
HALLOCK        FAIR      19   7  58 NW12      29.89S WCI   7
THF RVR FALLS  FLURRIES  18  11  74 NW16      29.88R WCI   3
BAUDETTE       FAIR      18   4  54 W10G22    29.78S WCI   6
WASKISH        PTSUNNY   19  10  68 W14G20    29.81F WCI   6
CROOKSTON      FAIR      21   9  58 NW16      29.92R WCI   7
STEPHEN NDAWN    N/A     18   7  62 NW12        N/A  WCI   5
GREENBUSH NDAW   N/A     16   7  67 W10         N/A  WCI   3
$$
  *****  WEATHER ACROSS CENTRAL AND WEST MINNESOTA  *****

CITY           SKY/WX    TMP DP  RH WIND       PRES   REMARKS
FOSSTON        FAIR      21  10  63 W12G18    29.87S WCI   9
BEMIDJI        FLURRIES  19  12  72 W17       29.84R WCI   4
PARK RAPIDS    PTSUNNY   23  14  68 W18       29.85R WCI   9
ELBOW LAKE     FAIR      28  12  51 W18       29.93R WCI  15
WADENA         PTSUNNY   23  12  63 W14G22    29.88S WCI  11
DETROIT LAKES  FAIR      21  12  68 W20       29.91R WCI   6
MOORHEAD       FAIR      25  10  54 NW21      29.96S WCI  10
FERGUS FALLS   FAIR      27  12  54 NW22G30   29.93R WCI  12
MORRIS MN      FAIR      34  10  37 NW25      29.93R WCI  21
STAPLES        FAIR      25  14  63 W17       29.87S WCI  11
$$
  *****  WEATHER ELSEWHERE ACROSS MINNESOTA  *****

CITY           SKY/WX    TMP DP  RH WIND       PRES   REMARKS
DULUTH         FAIR      27  12  53 W22G31    29.75F WCI  13
INTRNTL FALLS  FAIR      20   3  48 W17G24    29.77R WCI   5
ELY            PTSUNNY   21   9  58 W13G24    29.72S WCI   9
CLOQUET        FAIR      27  12  54 SW12G21   29.78S WCI  16
WHEATON        FAIR      30   9  40 W20       29.97S WCI  18
BRAINERD       FAIR      29  13  51 W12       29.85S WCI  19
HIBBING        CLOUDY    22   9  57 W12G20    29.77S WCI  10
ALEXANDRIA     FAIR      30  10  43 NW20G29   29.89S WCI  17
SAINT CLOUD    FAIR      33  17  51 W16G25    29.87S WCI  23
MINNEAPOLIS    FAIR      33  25  72 W8        29.88F
$$

  *****  WEATHER ACROSS SOUTH DAKOTA  *****

CITY           SKY/WX    TMP DP  RH WIND       PRES   REMARKS
SIOUX FALLS    PTSUNNY   32  26  78 W15G25    30.00R WCI  22
BROOKINGS      FAIR      33  20  58 NW18      29.95S WCI  22
WATERTOWN      PTSUNNY   31  17  56 NW17      29.94S WCI  19
HURON          CLOUDY    31  22  69 NW14      30.04R WCI  21
SISSETON         N/A     33  10  38 NW24G31   29.94S WCI  20
ABERDEEN       FAIR      34  14  43 NW17G26   30.01S WCI  23
MITCHELL       FAIR      31  25  78 NW15      30.05R WCI  20
PIERRE         FAIR      27  20  75 NW12      30.06R WCI  17
MOBRIDGE       FAIR      27  16  63 NW15      29.99F WCI  15
RAPID CITY     CLOUDY    28  21  75 NE16      29.98F WCI  16
$$

  *****  SOME WEATHER IN NEARBY STATES *****

CITY           SKY/WX    TMP DP  RH WIND       PRES   REMARKS
GLASGOW MT     PTSUNNY   14   5  67 NW6       29.99F WCI   5
GREAT FALLS MT LGT SNOW  19  15  84 E10       29.74F VSB 3/4 WCI   7
CHEYENNE WY    FAIR      43  10  26 W23G31    30.02F
SCOTTSBLUFF NE FAIR      45  16  31 NW7       30.00F
OMAHA NE       FAIR      45  27  49 NW17G23   30.02R
DES MOINES IA  FAIR      36  27  69 NW15      29.97R
DAVENPORT IA   HVY SNOW  31  29  92 SW10      29.93F VSB 1/4 WCI  22
CHICAGO IL     CLOUDY    34  24  67 SW13      29.96F WCI  25
EAU CLAIRE WI  CLOUDY    26  21  81 SW9       29.87F WCI  17
LA CROSSE WI   LGT SNOW  27  23  85 S8        29.91F VSB 1   WCI  19
$$

  *****  SOME NATIONAL WEATHER *****

CITY           SKY/WX    TMP DP  RH WIND       PRES   REMARKS
LA GUARDIA NY  PTSUNNY   38  20  48 SE14      30.32F
RALEIGH NC     LGT RAIN  43  40  89 SE8       30.16F FOG
ATLANTA GA     PTSUNNY   73  61  65 SW10      30.08F
NEW ORLEANS LA PTSUNNY   80  63  55 SW9       30.12F
OKLAHOMA CITY  PTSUNNY   55  34  45 N9        30.13F
ALBUQUERQUE NM PTSUNNY   51  24  34 N14       30.22F
SALT LAKE CITY FAIR      50  16  25 S17       30.13F
LOS ANGELES CA FAIR      70  22  16 VRB3      30.14S
BOISE ID       PTSUNNY   44  30  57 SE21      30.00F
SEATTLE WA     CLOUDY    48  46  93 SW29G48   29.62R
$$

*** WEATHER ACROSS MANITOBA...SASKATCHEWAN AND ONTARIO ***
                ***ONTARIO***

CITY           SKY/WX    TMP DP  RH WIND       PRES   REMARKS
GERALDTON      FLURRIES  19  10  68 W13G21    29.55S WCI   7
THUNDER BAY    PTSUNNY   28  12  50 W16G25    29.66S WCI  17
SIOUX LOOKOUT  CRYSTALS  18   1  49 W15G22    29.63S WCI   3
TORONTO        CLOUDY    30  18  59 S12       30.05F WCI  21
BIG TROUT LK   MOSUNNY    0 -13  55 NW12G20   29.49F WCI -18
PICKLE LAKE    PTSUNNY   12   1  62 W13G21    29.49F WCI  -3
DRYDEN         LGT SNOW  16   3  57 W22G36    29.65S WCI  -2
KENORA         MOSUNNY   14  -2  48 W15G22    29.72S WCI  -1
$$
                *** MANITOBA***

CITY           SKY/WX    TMP DP  RH WIND       PRES   REMARKS
BRANDON        MOSUNNY    9  -2  61 W18       29.89R WCI -10
DAUPHIN        MOSUNNY    9   0  66 W22       29.84S WCI -11
ISLAND LAKE    CLOUDY    -2 -11  65 W20G25    29.61R WCI -25
PILOT MOUND      N/A     14   3  62 W16G23      N/A  WCI  -2
THE PAS        CLOUDY     3  -9  55 NW21      29.75F WCI -18
THOMPSON       LGT SNOW  -6 -17  59 W21G26    29.62R DRFTSNOWWCI -30
WINNIPEG       PTSUNNY   14   1  57 W20G28    29.85  WCI  -3
LYNN LAKE      MOSUNNY  -11 -24  53 NW13G25   29.66R WCI -32
CHURCHILL      BLWGSNOW -27 -35  68 NW20G26   29.65R VSB 1/4 WCI -58
GILLAM         LGT SNOW  -9 -18  64 NW16      29.56  WCI -32
$$
                ***SASKATCHEWAN***

CITY           SKY/WX    TMP DP  RH WIND       PRES   REMARKS
ESTEVAN        MOSUNNY   12   1  62 W18G25    29.94S WCI  -5
KINDERSLEY     MOSUNNY    9   0  66 NW8       29.91F WCI  -4
LLOYDMINSTER   PTSUNNY    7   0  72 W14G20    29.86F WCI -10
PRINCE ALBERT  PTSUNNY   12  -4  48 NW16      29.85F WCI  -4
REGINA         PTSUNNY   10   1  67 NW17G28   29.91F WCI  -7
YORKTON        PTSUNNY    9   0  66 W12G18    29.84F WCI  -6
N. BATTLEFORD  CLOUDY     9  -2  61 NW18G25   29.90S WCI -10
LA RONGE       MOSUNNY    3  -9  55 NW17G28   29.81  WCI -17
SASKATOON      PTSUNNY   10   0  61 W17       29.90F WCI  -7
SWIFT CURRENT  SUNNY     10   0  61 W15       29.89F WCI  -6
$$
NOTE: THESE ARE AUTOMATED STATIONS WITH LIMITED QUALITY CONTROL
      "FAIR" INDICATES FEW OR NO CLOUDS BELOW 12,000 FEET WITH NO
      SIGNIFICANT WEATHER AND/OR OBSTRUCTIONS TO VISIBILITY.
      SKY/WX - SKY CONDITION AND SIGNIFICANT WEATHER.
      TMP - AIR TEMPERATURE.    DP   - DEWPOINT TEMPERATURE.
      RH  - RELATIVE HUMIDITY.  PRES - PRESSURE.
      HX  - HEAT INDEX.         WCI  - WIND CHILL INDEX.
$




USA.gov is the U.S. government's official web portal to all federal, state and local government web resources and services.